Flag for Greece Weather past 2 weeks in Patras, Greece

Now
59 °F

Broken clouds.


Feels Like: 59 °F
Forecast: 45 / 57 °F
Wind: 5 mph from Northwest

Location: Araxos Airport

Current Time: Jan 25, 2015 at 3:13:02 PM

Latest Report: Jan 25, 2015 at 2:50 PM


Visibility: N/A

Pressure: 29.80 "Hg

Humidity: 77%

Dew point: 52 °F

Location of PatrasLocation

Historic Weather in Patras — Graph

°F

Patras temperature yesterday

Maximum temperature yesterday: 54 °F (at 10:50 AM)
Minimum temperature yesterday: 48 °F (at 12:50 AM)
Average temperature yesterday: 50 °F

Past Weeks' High & Low Weather Summary

 TemperatureHumidityPressure
High68 °F (Jan 22, 8:50 PM)100% (Jan 10, 7:50 PM)30.33 "Hg (Jan 10, 7:50 PM)
Low34 °F (Jan 16, 6:20 AM)23% (Jan 13, 2:50 PM)29.59 "Hg (Jan 24, 2:50 PM)
Average52 °F78%30.04 "Hg
* Reported Jan 10 1:20 PM — Jan 25 1:50 PM, Patras, Weather by CustomWeather, © 2014

Note: Actual official high and low records may vary slightly from our data, if they occured in-between our weather recording intervals... More about our weather records

Advertising

Patras weather history for previous 24 hours

 ConditionsComfort  
Time TempWeatherWind HumidityBarometerVisibility
1:50 PM
Jan 25
59 °FScattered clouds.5 mph72%29.80 "HgN/A
1:20 PM57 °FScattered clouds.3 mph77%29.80 "HgN/A
12:50 PM57 °FScattered clouds.3 mph77%29.80 "HgN/A
12:20 PM59 °FScattered clouds.No wind68%29.80 "HgN/A
11:50 AM59 °FScattered clouds.No wind72%29.80 "HgN/A
11:20 AM57 °FPassing clouds.3 mph77%29.80 "HgN/A
10:50 AM55 °FPassing clouds.3 mph82%29.80 "HgN/A
10:20 AM54 °FPassing clouds.5 mph88%29.80 "HgN/A
9:50 AM52 °FPassing clouds.5 mph94%29.77 "HgN/A
9:20 AM48 °FPassing clouds.5 mph100%29.77 "HgN/A
8:50 AM46 °FPassing clouds.2 mph100%29.77 "HgN/A
8:20 AM46 °FPassing clouds.2 mph100%29.77 "HgN/A
7:50 AM46 °FPassing clouds.No wind100%29.77 "HgN/A
7:20 AM46 °FPassing clouds.No wind100%29.74 "HgN/A
6:50 AM48 °FPassing clouds.No wind100%29.74 "HgN/A
5:50 AM45 °FPassing clouds.No wind100%29.71 "HgN/A
4:50 AM45 °FPassing clouds.No wind100%29.71 "HgN/A
2:50 AM46 °FPassing clouds.No wind100%29.71 "HgN/A
1:50 AM48 °FPassing clouds.No wind100%29.68 "HgN/A
12:50 AM48 °FPassing clouds.2 mph100%29.68 "HgN/A
11:50 PM
Jan 24
50 °FPassing clouds.3 mph94%29.68 "HgN/A
10:50 PM50 °FLight rain. Mostly cloudy.9 mph100%29.68 "HgN/A
9:50 PM50 °FLight rain. Mostly cloudy.3 mph100%29.65 "HgN/A
8:50 PM50 °FMostly cloudy.8 mph100%29.65 "HgN/A
7:50 PM50 °FLight rain. Mostly cloudy.7 mph100%29.65 "HgN/A
6:50 PM52 °FThunderstorms. Mostly cloudy.7 mph94%29.62 "Hg6 mi
6:20 PM52 °FThunderstorms. Mostly cloudy.9 mph94%29.62 "Hg5 mi
5:50 PM52 °FLight rain. Mostly cloudy.14 mph94%29.62 "Hg5 mi
5:20 PM52 °FLight rain. Mostly cloudy.9 mph94%29.62 "Hg4 mi
4:50 PM52 °FThunderstorms. More clouds than sun.8 mph100%29.62 "HgN/A
4:20 PM54 °FLight rain. Broken clouds.8 mph94%29.62 "HgN/A
3:50 PM54 °FBroken clouds.3 mph94%29.62 "HgN/A
Weather by CustomWeather, © 2014

See weather overviewHow to use our weather pages